Shelbyville, IN

4:02 AM EDT on June 29, 2017 (GMT -0400)
Shelbyville Municipal

Weather History for KGEZ - May, 2012

Change the Weather History Date:

Tuesday, May 22, 2012

  Actual Average Record
Temperature  
Mean Temperature 66 °F 65 °F  
Max Temperature 77 °F 75 °F 87 °F (2007)
Min Temperature 55 °F 55 °F 35 °F (2002)
Degree Days  
Heating Degree Days 0 3  
Month to date heating degree days 19 115  
Since 1 July heating degree days 4137 5375  
Cooling Degree Days 1 3  
Month to date cooling degree days 96 37  
Year to date cooling degree days 151 50  
Growing Degree Days 16 (Base 50)    
Moisture  
Dew Point 49 °F    
Average Humidity 60    
Maximum Humidity 83    
Minimum Humidity 36    
Precipitation  
Precipitation 0.00 in 0.16 in 0.43 in (1999)
Month to date precipitation 2.15 3.97  
Year to date precipitation 12.41 16.47  
Sea Level Pressure  
Sea Level Pressure 29.94 in    
Wind  
Wind Speed 6 mph (North)    
Max Wind Speed 12 mph    
Max Gust Speed 22 mph    
Visibility 10 miles    
Events      
T = Trace of Precipitation, MM = Missing Value Source: NWS Daily Summary

Daily Weather History Graph

Daily Weather History Graph

Search for Another Location

Airport or City:

Trip Planner

Search our weather history database for the weather conditions in past years. The results will help you decide how hot, cold, wet, or windy it might be!

Date:

Astronomy

May. 22, 2012 Rise Set
Actual Time 6:22 AM EDT 8:57 PM EDT
Civil Twilight 5:51 AM EDT 9:28 PM EDT
Nautical Twilight 5:13 AM EDT 10:07 PM EDT
Astronomical Twilight 4:30 AM EDT 10:50 PM EDT
Moon 7:33 AM EDT (5/22) 10:34 PM EDT (5/22)
Length of Visible Light 15h 36m
Length of Day
14h 34m
Waxing Crescent, 3% of the Moon is Illuminated
May 22
Waxing Crescent
May 28
First Quarter
Jun 4
Full
Jun 11
Last Quarter
Jun 19
New

Hourly Weather History & Observations

Time (EDT) Temp. Dew Point Humidity Pressure Visibility Wind Dir Wind Speed Gust Speed Precip Events Conditions
1:53 AM 55.9 °F 48.9 °F 77% 29.99 in 10.0 mi North 8.1 mph - N/A   Clear
2:53 AM 55.0 °F 48.9 °F 80% 29.97 in 10.0 mi North 9.2 mph - N/A   Clear
3:53 AM 55.0 °F 48.9 °F 80% 29.96 in 10.0 mi North 9.2 mph - N/A   Clear
4:37 AM 55.4 °F 48.2 °F 77% 29.97 in 10.0 mi North 9.2 mph - N/A   Mostly Cloudy
4:53 AM 55.9 °F 48.9 °F 77% 29.96 in 10.0 mi North 5.8 mph - N/A   Overcast
5:53 AM 55.9 °F 50.0 °F 80% 29.95 in 10.0 mi North 5.8 mph - N/A   Scattered Clouds
6:01 AM 55.4 °F 50.0 °F 82% 29.96 in 10.0 mi North 4.6 mph - N/A   Mostly Cloudy
6:42 AM 57.2 °F 50.0 °F 77% 29.97 in 10.0 mi North 6.9 mph - N/A   Mostly Cloudy
6:53 AM 57.0 °F 50.0 °F 77% 29.96 in 10.0 mi NNW 8.1 mph - N/A   Overcast
7:53 AM 55.9 °F 48.9 °F 77% 29.97 in 10.0 mi North 8.1 mph - N/A   Scattered Clouds
8:53 AM 60.1 °F 50.0 °F 69% 29.97 in 10.0 mi NNE 9.2 mph - N/A   Scattered Clouds
9:53 AM 64.0 °F 52.0 °F 65% 29.98 in 10.0 mi North 9.2 mph - N/A   Clear
10:53 AM 66.9 °F 53.1 °F 61% 29.98 in 10.0 mi North 9.2 mph - N/A   Clear
11:53 AM 68.0 °F 52.0 °F 56% 29.97 in 10.0 mi North 6.9 mph - N/A   Overcast
12:53 PM 71.1 °F 52.0 °F 51% 29.96 in 10.0 mi Calm Calm - N/A   Mostly Cloudy
1:53 PM 73.0 °F 51.1 °F 46% 29.94 in 10.0 mi NW 4.6 mph - N/A   Mostly Cloudy
2:53 PM 73.9 °F 48.9 °F 41% 29.92 in 10.0 mi Variable 4.6 mph - N/A   Mostly Cloudy
3:53 PM 75.0 °F 48.9 °F 40% 29.91 in 10.0 mi NNW 4.6 mph - N/A   Scattered Clouds
4:53 PM 75.9 °F 48.9 °F 38% 29.88 in 10.0 mi North 5.8 mph - N/A   Clear
5:53 PM 77.0 °F 48.9 °F 37% 29.88 in 10.0 mi North 5.8 mph - N/A   Clear
6:53 PM 75.9 °F 46.9 °F 36% 29.87 in 10.0 mi NNE 4.6 mph - N/A   Clear
7:53 PM 75.0 °F 46.9 °F 37% 29.86 in 10.0 mi NNE 4.6 mph - N/A   Clear
8:53 PM 71.1 °F 48.0 °F 44% 29.87 in 10.0 mi NE 3.5 mph - N/A   Partly Cloudy
9:53 PM 66.9 °F 48.0 °F 51% 29.88 in 10.0 mi North 3.5 mph - N/A   Clear
10:53 PM 66.0 °F 46.9 °F 50% 29.89 in 10.0 mi NNE 4.6 mph - N/A   Clear
11:53 PM 62.1 °F 46.9 °F 58% 29.89 in 10.0 mi Calm Calm - N/A   Clear